Flag for Norway Weather past 2 weeks in Ålesund, Norway

Now
61 °F

Broken clouds.


Feels Like: 61 °F
Forecast: 56 / 65 °F
Wind: 8 mph from West

Location: Alesund / Vigra

Current Time: Aug 1, 2014 at 3:58:35 PM

Latest Report: Aug 1, 2014 at 3:20 PM


Visibility: N/A

Pressure: 29.80 "Hg

Humidity: 63%

Dew point: 48 °F

Location of ÅlesundLocation

Historic Weather in Ålesund — Graph

°F

Ålesund temperature yesterday

Maximum temperature yesterday: 63 °F (at 1:50 PM)
Minimum temperature yesterday: 57 °F (at 6:50 AM)
Average temperature yesterday: 59 °F

Past Weeks' High & Low Weather Summary

 TemperatureHumidityPressure
High82 °F (Jul 21, 12:50 PM)100% (Jul 17, 4:50 PM)30.39 "Hg (Jul 17, 4:50 PM)
Low55 °F (Jul 18, 6:50 AM)32% (Jul 21, 12:50 PM)29.47 "Hg (Jul 31, 5:20 AM)
Average64 °F82%30.01 "Hg
* Reported Jul 17 2:20 PM — Aug 1 2:20 PM, Ålesund, Weather by CustomWeather, © 2014

Note: Actual official high and low records may vary slightly from our data, if they occured in-between our weather recording intervals... More about our weather records

Advertising

Ålesund weather history for previous 24 hours

 ConditionsComfort  
Time TempWeatherWind HumidityBarometerVisibility
2:20 PM
Aug 1
61 °FBroken clouds.8 mph68%29.80 "HgN/A
1:50 PM59 °FScattered clouds.8 mph72%29.80 "HgN/A
1:20 PM59 °FScattered showers. Broken clouds.9 mph72%29.77 "HgN/A
12:50 PM59 °FScattered showers. Broken clouds.7 mph72%29.77 "HgN/A
12:20 PM57 °FScattered showers. Broken clouds.8 mph72%29.77 "HgN/A
11:50 AM59 °FScattered showers. Broken clouds.7 mph68%29.77 "HgN/A
11:20 AM57 °FScattered showers. Broken clouds.7 mph77%29.74 "HgN/A
10:50 AM57 °FScattered showers. Partly sunny.6 mph72%29.74 "HgN/A
10:20 AM57 °FScattered showers. Broken clouds.6 mph77%29.74 "HgN/A
9:50 AM55 °FScattered showers. Broken clouds.6 mph88%29.74 "HgN/A
9:20 AM57 °FScattered showers. Broken clouds.6 mph72%29.71 "HgN/A
8:50 AM55 °FScattered showers. Broken clouds.7 mph77%29.71 "HgN/A
8:20 AM57 °FScattered showers. Broken clouds.6 mph77%29.71 "HgN/A
7:50 AM55 °FScattered showers. Broken clouds.7 mph82%29.71 "HgN/A
7:20 AM55 °FScattered showers. Broken clouds.8 mph82%29.68 "HgN/A
6:50 AM55 °FBroken clouds.7 mph77%29.68 "HgN/A
6:20 AM55 °FScattered clouds.9 mph77%29.68 "HgN/A
5:50 AM55 °FPassing clouds.9 mph77%29.68 "HgN/A
5:20 AM55 °FPassing clouds.9 mph77%29.68 "HgN/A
4:50 AM55 °FOvercast.10 mph77%29.68 "HgN/A
4:20 AM55 °FOvercast.10 mph77%29.68 "HgN/A
3:50 AM57 °FOvercast.10 mph72%29.68 "HgN/A
3:20 AM57 °FOvercast.10 mph72%29.68 "HgN/A
2:50 AM57 °FMostly cloudy.8 mph72%29.68 "HgN/A
2:20 AM57 °FOvercast.9 mph77%29.68 "HgN/A
1:50 AM57 °FOvercast.13 mph72%29.68 "HgN/A
1:20 AM57 °FPassing clouds.12 mph72%29.68 "HgN/A
12:50 AM57 °FOvercast.13 mph77%29.68 "HgN/A
12:20 AM57 °FOvercast.12 mph77%29.68 "HgN/A
11:50 PM
Jul 31
57 °FPartly cloudy.10 mph77%29.68 "HgN/A
11:20 PM57 °FScattered showers. Broken clouds.12 mph77%29.68 "HgN/A
10:50 PM57 °FScattered showers. Broken clouds.13 mph77%29.65 "HgN/A
10:20 PM57 °FBroken clouds.14 mph82%29.65 "HgN/A
9:50 PM57 °FBroken clouds.13 mph77%29.65 "HgN/A
9:20 PM57 °FBroken clouds.13 mph77%29.65 "HgN/A
8:50 PM57 °FBroken clouds.13 mph77%29.65 "HgN/A
8:20 PM59 °FBroken clouds.12 mph77%29.65 "HgN/A
7:50 PM57 °FScattered showers. Partly sunny.14 mph82%29.65 "HgN/A
7:20 PM57 °FBroken clouds.15 mph82%29.62 "HgN/A
6:50 PM59 °FBroken clouds.15 mph82%29.62 "HgN/A
6:20 PM59 °FScattered showers. Partly sunny.17 mph82%29.62 "HgN/A
5:50 PM59 °FLight rain. Partly sunny.16 mph82%29.62 "HgN/A
5:20 PM59 °FPartly sunny.17 mph82%29.62 "HgN/A
4:50 PM59 °FScattered showers. Broken clouds.15 mph88%29.62 "HgN/A
4:20 PM57 °FDrizzle. Broken clouds.17 mph94%29.62 "HgN/A
3:50 PM59 °FScattered showers. Broken clouds.17 mph88%29.59 "HgN/A
3:20 PM59 °FRain. Broken clouds.18 mph94%29.59 "Hg3 mi
Weather by CustomWeather, © 2014

See weather overviewHow to use our weather pages